﻿測定場所 (Monitoring sites),日付 (Measurement date),時間 (Measurement time),線量率 最大値 (max) μGy/h,線量率 最小値 (min) μGy/h,線量率 平均値 (average) μGy/h,
江戸川 (Edogawa),2012-12-23,23:01～24:00,0.101,0.0878,0.0960,
江戸川 (Edogawa),2012-12-23,22:01～23:00,0.100,0.0881,0.0959,
江戸川 (Edogawa),2012-12-23,21:01～22:00,0.103,0.0920,0.0963,
江戸川 (Edogawa),2012-12-23,20:01～21:00,0.102,0.0882,0.0961,
江戸川 (Edogawa),2012-12-23,19:01～20:00,0.100,0.0920,0.0958,
江戸川 (Edogawa),2012-12-23,18:01～19:00,0.103,0.0898,0.0962,
江戸川 (Edogawa),2012-12-23,17:01～18:00,0.101,0.0881,0.0953,
江戸川 (Edogawa),2012-12-23,16:01～17:00,0.103,0.0907,0.0957,
江戸川 (Edogawa),2012-12-23,15:01～16:00,0.105,0.0906,0.0964,
江戸川 (Edogawa),2012-12-23,14:01～15:00,0.102,0.0911,0.0967,
江戸川 (Edogawa),2012-12-23,13:01～14:00,0.102,0.0902,0.0965,
江戸川 (Edogawa),2012-12-23,12:01～13:00,0.101,0.0912,0.0961,
江戸川 (Edogawa),2012-12-23,11:01～12:00,0.102,0.0905,0.0962,
江戸川 (Edogawa),2012-12-23,10:01～11:00,0.105,0.0911,0.0964,
江戸川 (Edogawa),2012-12-23,09:01～10:00,0.101,0.0885,0.0960,
江戸川 (Edogawa),2012-12-23,08:01～09:00,0.100,0.0912,0.0957,
江戸川 (Edogawa),2012-12-23,07:01～08:00,0.100,0.0897,0.0959,
江戸川 (Edogawa),2012-12-23,06:01～07:00,0.102,0.0895,0.0957,
江戸川 (Edogawa),2012-12-23,05:01～06:00,0.0996,0.0877,0.0954,
江戸川 (Edogawa),2012-12-23,04:01～05:00,0.101,0.0902,0.0951,
江戸川 (Edogawa),2012-12-23,03:01～04:00,0.104,0.0898,0.0957,
江戸川 (Edogawa),2012-12-23,02:01～03:00,0.102,0.0882,0.0959,
江戸川 (Edogawa),2012-12-23,01:01～02:00,0.102,0.0896,0.0953,
江戸川 (Edogawa),2012-12-23,00:01～01:00,0.103,0.0890,0.0961,
江戸川 (Edogawa),2012-12-22,23:01～24:00,0.102,0.0865,0.0944,
江戸川 (Edogawa),2012-12-22,22:01～23:00,0.101,0.0895,0.0956,
江戸川 (Edogawa),2012-12-22,21:01～22:00,0.101,0.0897,0.0947,
江戸川 (Edogawa),2012-12-22,20:01～21:00,0.101,0.0908,0.0960,
江戸川 (Edogawa),2012-12-22,19:01～20:00,0.102,0.0883,0.0952,
江戸川 (Edogawa),2012-12-22,18:01～19:00,0.101,0.0902,0.0959,
江戸川 (Edogawa),2012-12-22,17:01～18:00,0.103,0.0915,0.0963,
江戸川 (Edogawa),2012-12-22,16:01～17:00,0.101,0.0894,0.0960,
江戸川 (Edogawa),2012-12-22,15:01～16:00,0.104,0.0920,0.0974,
江戸川 (Edogawa),2012-12-22,14:01～15:00,0.106,0.0934,0.100,
江戸川 (Edogawa),2012-12-22,13:01～14:00,0.110,0.0947,0.102,
江戸川 (Edogawa),2012-12-22,12:01～13:00,0.110,0.0967,0.103,
江戸川 (Edogawa),2012-12-22,11:01～12:00,0.111,0.0986,0.104,
江戸川 (Edogawa),2012-12-22,10:01～11:00,0.111,0.0966,0.105,
江戸川 (Edogawa),2012-12-22,09:01～10:00,0.110,0.100,0.105,
江戸川 (Edogawa),2012-12-22,08:01～09:00,0.108,0.0966,0.103,
江戸川 (Edogawa),2012-12-22,07:01～08:00,0.107,0.0925,0.0998,
江戸川 (Edogawa),2012-12-22,06:01～07:00,0.106,0.0943,0.0991,
江戸川 (Edogawa),2012-12-22,05:01～06:00,0.107,0.0940,0.101,
江戸川 (Edogawa),2012-12-22,04:01～05:00,0.105,0.0938,0.0988,
江戸川 (Edogawa),2012-12-22,03:01～04:00,0.105,0.0919,0.0981,
江戸川 (Edogawa),2012-12-22,02:01～03:00,0.104,0.0924,0.0981,
江戸川 (Edogawa),2012-12-22,01:01～02:00,0.102,0.0913,0.0978,
江戸川 (Edogawa),2012-12-22,00:01～01:00,0.103,0.0914,0.0974,
江戸川 (Edogawa),2012-12-21,23:01～24:00,0.104,0.0921,0.0977,
江戸川 (Edogawa),2012-12-21,22:01～23:00,0.103,0.0922,0.0977,
江戸川 (Edogawa),2012-12-21,21:01～22:00,0.103,0.0930,0.0980,
江戸川 (Edogawa),2012-12-21,20:01～21:00,0.104,0.0910,0.0974,
江戸川 (Edogawa),2012-12-21,19:01～20:00,0.102,0.0925,0.0977,
江戸川 (Edogawa),2012-12-21,18:01～19:00,0.103,0.0907,0.0969,
江戸川 (Edogawa),2012-12-21,17:01～18:00,0.102,0.0903,0.0966,
江戸川 (Edogawa),2012-12-21,16:01～17:00,0.102,0.0918,0.0974,
江戸川 (Edogawa),2012-12-21,15:01～16:00,0.103,0.0921,0.0972,
江戸川 (Edogawa),2012-12-21,14:01～15:00,0.103,0.0927,0.0979,
江戸川 (Edogawa),2012-12-21,13:01～14:00,0.103,0.0928,0.0970,
江戸川 (Edogawa),2012-12-21,12:01～13:00,0.103,0.0884,0.0963,
江戸川 (Edogawa),2012-12-21,05:01～06:00,0.102,0.0904,0.0955,
江戸川 (Edogawa),2012-12-21,04:01～05:00,0.102,0.0908,0.0963,
江戸川 (Edogawa),2012-12-21,03:01～04:00,0.102,0.0911,0.0965,
江戸川 (Edogawa),2012-12-21,02:01～03:00,0.102,0.0923,0.0974,
江戸川 (Edogawa),2012-12-21,01:01～02:00,0.104,0.0898,0.0971,
江戸川 (Edogawa),2012-12-21,00:01～01:00,0.104,0.0925,0.0973,
江戸川 (Edogawa),2012-12-20,23:01～24:00,0.104,0.0901,0.0975,
江戸川 (Edogawa),2012-12-20,22:01～23:00,0.102,0.0897,0.0971,
江戸川 (Edogawa),2012-12-20,21:01～22:00,0.103,0.0902,0.0971,
江戸川 (Edogawa),2012-12-20,20:01～21:00,0.105,0.0900,0.0973,
江戸川 (Edogawa),2012-12-20,19:01～20:00,0.104,0.0902,0.0972,
江戸川 (Edogawa),2012-12-20,18:01～19:00,0.102,0.0921,0.0972,
江戸川 (Edogawa),2012-12-20,17:01～18:00,0.103,0.0928,0.0975,
江戸川 (Edogawa),2012-12-20,16:01～17:00,0.102,0.0914,0.0967,
江戸川 (Edogawa),2012-12-20,15:01～16:00,0.104,0.0932,0.0978,
江戸川 (Edogawa),2012-12-20,14:01～15:00,0.103,0.0945,0.0991,
江戸川 (Edogawa),2012-12-20,13:01～14:00,0.102,0.0914,0.0979,
江戸川 (Edogawa),2012-12-20,12:01～13:00,0.106,0.0922,0.0983,
江戸川 (Edogawa),2012-12-20,11:01～12:00,0.104,0.0919,0.0975,
江戸川 (Edogawa),2012-12-20,10:01～11:00,0.104,0.0920,0.0976,
江戸川 (Edogawa),2012-12-20,09:01～10:00,0.102,0.0903,0.0970,
江戸川 (Edogawa),2012-12-20,08:01～09:00,0.103,0.0889,0.0969,
江戸川 (Edogawa),2012-12-20,07:01～08:00,0.102,0.0891,0.0960,
江戸川 (Edogawa),2012-12-20,06:01～07:00,0.103,0.0897,0.0972,
江戸川 (Edogawa),2012-12-20,05:01～06:00,0.105,0.0921,0.0968,
江戸川 (Edogawa),2012-12-20,04:01～05:00,0.102,0.0912,0.0961,
江戸川 (Edogawa),2012-12-20,03:01～04:00,0.102,0.0890,0.0964,
江戸川 (Edogawa),2012-12-20,02:01～03:00,0.102,0.0890,0.0962,
江戸川 (Edogawa),2012-12-20,01:01～02:00,0.104,0.0902,0.0965,
江戸川 (Edogawa),2012-12-20,00:01～01:00,0.103,0.0887,0.0967,
江戸川 (Edogawa),2012-12-19,23:01～24:00,0.103,0.0909,0.0967,
江戸川 (Edogawa),2012-12-19,22:01～23:00,0.101,0.0903,0.0968,
江戸川 (Edogawa),2012-12-19,21:01～22:00,0.102,0.0920,0.0968,
江戸川 (Edogawa),2012-12-19,20:01～21:00,0.102,0.0908,0.0968,
江戸川 (Edogawa),2012-12-19,19:01～20:00,0.102,0.0932,0.0969,
江戸川 (Edogawa),2012-12-19,18:01～19:00,0.101,0.0928,0.0975,
江戸川 (Edogawa),2012-12-19,17:01～18:00,0.102,0.0927,0.0968,
江戸川 (Edogawa),2012-12-19,16:01～17:00,0.102,0.0927,0.0974,
江戸川 (Edogawa),2012-12-19,15:01～16:00,0.101,0.0921,0.0966,
江戸川 (Edogawa),2012-12-19,14:01～15:00,0.103,0.0917,0.0976,
江戸川 (Edogawa),2012-12-19,13:01～14:00,0.103,0.0922,0.0978,
江戸川 (Edogawa),2012-12-19,12:01～13:00,0.101,0.0918,0.0964,
江戸川 (Edogawa),2012-12-19,11:01～12:00,0.103,0.0910,0.0971,
江戸川 (Edogawa),2012-12-19,10:01～11:00,0.105,0.0905,0.0968,
江戸川 (Edogawa),2012-12-19,09:01～10:00,0.103,0.0907,0.0964,
江戸川 (Edogawa),2012-12-19,08:01～09:00,0.101,0.0893,0.0962,
江戸川 (Edogawa),2012-12-19,07:01～08:00,0.102,0.0917,0.0967,
江戸川 (Edogawa),2012-12-19,06:01～07:00,0.103,0.0905,0.0958,
江戸川 (Edogawa),2012-12-19,05:01～06:00,0.102,0.0922,0.0969,
江戸川 (Edogawa),2012-12-19,04:01～05:00,0.102,0.0899,0.0967,
江戸川 (Edogawa),2012-12-19,03:01～04:00,0.100,0.0922,0.0967,
江戸川 (Edogawa),2012-12-19,02:01～03:00,0.103,0.0909,0.0972,
江戸川 (Edogawa),2012-12-19,01:01～02:00,0.102,0.0918,0.0970,
江戸川 (Edogawa),2012-12-19,00:01～01:00,0.104,0.0919,0.0973,
江戸川 (Edogawa),2012-12-18,23:01～24:00,0.102,0.0913,0.0974,
江戸川 (Edogawa),2012-12-18,22:01～23:00,0.105,0.0917,0.0968,
江戸川 (Edogawa),2012-12-18,21:01～22:00,0.102,0.0921,0.0972,
江戸川 (Edogawa),2012-12-18,20:01～21:00,0.103,0.0922,0.0974,
江戸川 (Edogawa),2012-12-18,19:01～20:00,0.105,0.0920,0.0975,
江戸川 (Edogawa),2012-12-18,18:01～19:00,0.105,0.0909,0.0977,
江戸川 (Edogawa),2012-12-18,17:01～18:00,0.103,0.0896,0.0971,
江戸川 (Edogawa),2012-12-18,16:01～17:00,0.105,0.0922,0.0981,
江戸川 (Edogawa),2012-12-18,15:01～16:00,0.104,0.0922,0.0986,
江戸川 (Edogawa),2012-12-18,14:01～15:00,0.104,0.0941,0.0988,
江戸川 (Edogawa),2012-12-18,13:01～14:00,0.105,0.0945,0.0995,
江戸川 (Edogawa),2012-12-18,12:01～13:00,0.105,0.0920,0.0987,
江戸川 (Edogawa),2012-12-18,11:01～12:00,0.107,0.0931,0.0983,
江戸川 (Edogawa),2012-12-18,10:01～11:00,0.104,0.0916,0.0975,
江戸川 (Edogawa),2012-12-18,09:01～10:00,0.102,0.0918,0.0971,
江戸川 (Edogawa),2012-12-18,08:01～09:00,0.102,0.0911,0.0972,
江戸川 (Edogawa),2012-12-18,07:01～08:00,0.102,0.0915,0.0975,
江戸川 (Edogawa),2012-12-18,06:01～07:00,0.104,0.0919,0.0973,
江戸川 (Edogawa),2012-12-18,05:01～06:00,0.104,0.0935,0.0981,
江戸川 (Edogawa),2012-12-18,04:01～05:00,0.105,0.0910,0.0975,
江戸川 (Edogawa),2012-12-18,03:01～04:00,0.104,0.0929,0.0978,
江戸川 (Edogawa),2012-12-18,02:01～03:00,0.104,0.0924,0.0977,
江戸川 (Edogawa),2012-12-18,01:01～02:00,0.105,0.0905,0.0977,
江戸川 (Edogawa),2012-12-18,00:01～01:00,0.103,0.0908,0.0975,
江戸川 (Edogawa),2012-12-17,23:01～24:00,0.105,0.0919,0.0994,
江戸川 (Edogawa),2012-12-17,22:01～23:00,0.106,0.0915,0.0977,
江戸川 (Edogawa),2012-12-17,21:01～22:00,0.102,0.0892,0.0973,
江戸川 (Edogawa),2012-12-17,20:01～21:00,0.101,0.0923,0.0970,
江戸川 (Edogawa),2012-12-17,19:01～20:00,0.105,0.0917,0.0989,
江戸川 (Edogawa),2012-12-17,18:01～19:00,0.106,0.0922,0.0987,
江戸川 (Edogawa),2012-12-17,17:01～18:00,0.102,0.0906,0.0972,
江戸川 (Edogawa),2012-12-17,16:01～17:00,0.101,0.0909,0.0976,
江戸川 (Edogawa),2012-12-17,15:01～16:00,0.103,0.0919,0.0973,
江戸川 (Edogawa),2012-12-17,14:01～15:00,0.105,0.0910,0.0976,
江戸川 (Edogawa),2012-12-17,13:01～14:00,0.103,0.0901,0.0978,
江戸川 (Edogawa),2012-12-17,12:01～13:00,0.104,0.0910,0.0981,
江戸川 (Edogawa),2012-12-17,11:01～12:00,0.104,0.0918,0.0976,
江戸川 (Edogawa),2012-12-17,10:01～11:00,0.104,0.0918,0.0994,
江戸川 (Edogawa),2012-12-17,09:01～10:00,0.111,0.0957,0.103,
江戸川 (Edogawa),2012-12-17,08:01～09:00,0.105,0.0934,0.0991,
江戸川 (Edogawa),2012-12-17,07:01～08:00,0.105,0.0911,0.0982,
江戸川 (Edogawa),2012-12-17,06:01～07:00,0.104,0.0913,0.0974,
江戸川 (Edogawa),2012-12-17,05:01～06:00,0.105,0.0925,0.0970,
江戸川 (Edogawa),2012-12-17,04:01～05:00,0.104,0.0928,0.0974,
江戸川 (Edogawa),2012-12-17,03:01～04:00,0.104,0.0913,0.0974,
江戸川 (Edogawa),2012-12-17,02:01～03:00,0.103,0.0916,0.0971,
江戸川 (Edogawa),2012-12-17,01:01～02:00,0.104,0.0921,0.0977,
江戸川 (Edogawa),2012-12-17,00:01～01:00,0.102,0.0904,0.0973,
